Weather History for Hailey, ID

Change the Weather History Date:

Sunday, July 14, 2013

  Actual Average Record
Temperature  
Mean Temperature 70 °F -  
Max Temperature 87 °F 84 °F 98 °F (2000)
Min Temperature 53 °F 53 °F 42 °F (2010)
Cooling Degree Days 5    
Growing Degree Days 20 (Base 50)    
Moisture  
Dew Point 32 °F    
Average Humidity 31    
Maximum Humidity 41    
Minimum Humidity 13    
Precipitation  
Precipitation 0.00 in - - ()
Sea Level Pressure  
Sea Level Pressure 30.17 in    
Wind  
Wind Speed 10 mph (NW)    
Max Wind Speed 16 mph    
Max Gust Speed 23 mph    
Visibility 10 miles    
Events      
Averages and records for this station are not official NWS values.
T = Trace of Precipitation, MM = Missing Value Source: NWS Daily Summary

Daily Weather History Graph

Daily Weather History Graph

Search for Another Location

Airport:

Trip Planner

Search our weather history database for the weather conditions in past years. The results will help you decide how hot, cold, wet, or windy it might be!

Date:

Astronomy

Jul. 14, 2013 Rise Set
Actual Time 6:09 AM MDT 9:16 PM MDT
Civil Twilight 5:34 AM MDT 9:50 PM MDT
Nautical Twilight 4:50 AM MDT 10:35 PM MDT
Astronomical Twilight 3:56 AM MDT 11:28 PM MDT
Moon 12:43 PM MDT (7/14) No Moon Set
Length of Visible Light 16h 16m
Length of Day
15h 06m
Waxing Crescent, 35% of the Moon is Illuminated
Jul 14
Waxing Crescent
Jul 15
First Quarter
Jul 22
Full
Jul 29
Last Quarter
Aug 6
New

Hourly Weather History & Observations

Time (MDT) Temp. Dew Point Humidity Pressure Visibility Wind Dir Wind Speed Gust Speed Precip Events Conditions
12:15 AM 60.8 °F 30.2 °F 31% 30.18 in 10.0 mi NNW 9.2 mph - N/A   Clear
12:35 AM 60.8 °F 30.2 °F 31% 30.19 in 10.0 mi NW 10.4 mph - N/A   Clear
12:55 AM 59.0 °F 30.2 °F 34% 30.19 in 10.0 mi NW 10.4 mph - N/A   Clear
1:15 AM 59.0 °F 30.2 °F 34% 30.19 in 10.0 mi NW 10.4 mph - N/A   Clear
1:35 AM 59.0 °F 32.0 °F 36% 30.19 in 10.0 mi NW 8.1 mph - N/A   Clear
1:55 AM 59.0 °F 30.2 °F 34% 30.19 in 10.0 mi NW 11.5 mph - N/A   Clear
2:15 AM 57.2 °F 30.2 °F 36% 30.19 in 10.0 mi NW 10.4 mph - N/A   Clear
2:35 AM 55.4 °F 30.2 °F 38% 30.19 in 10.0 mi WNW 10.4 mph - N/A   Clear
2:55 AM 55.4 °F 30.2 °F 38% 30.19 in 10.0 mi NW 10.4 mph - N/A   Clear
3:15 AM 55.4 °F 30.2 °F 38% 30.19 in 10.0 mi NW 10.4 mph - N/A   Clear
3:35 AM 55.4 °F 30.2 °F 38% 30.19 in 10.0 mi NW 13.8 mph - N/A   Clear
3:55 AM 55.4 °F 30.2 °F 38% 30.19 in 10.0 mi NW 9.2 mph - N/A   Clear
4:15 AM 55.4 °F 30.2 °F 38% 30.19 in 10.0 mi NW 10.4 mph 17.3 mph N/A   Clear
4:35 AM 53.6 °F 30.2 °F 41% 30.20 in 10.0 mi NW 11.5 mph - N/A   Clear
4:55 AM 53.6 °F 30.2 °F 41% 30.20 in 10.0 mi NW 10.4 mph - N/A   Clear
5:15 AM 53.6 °F 30.2 °F 41% 30.20 in 10.0 mi NW 11.5 mph - N/A   Clear
5:35 AM 53.6 °F 30.2 °F 41% 30.20 in 10.0 mi NW 11.5 mph - N/A   Clear
5:55 AM 53.6 °F 30.2 °F 41% 30.20 in 10.0 mi NW 13.8 mph - N/A   Clear
6:15 AM 53.6 °F 30.2 °F 41% 30.20 in 10.0 mi NW 10.4 mph - N/A   Clear
6:35 AM 53.6 °F 30.2 °F 41% 30.21 in 10.0 mi NW 9.2 mph - N/A   Clear
6:47 AM 53.6 °F 28.4 °F 38% 30.21 in 10.0 mi NW 10.4 mph - N/A   Scattered Clouds
6:55 AM 53.6 °F 30.2 °F 41% 30.22 in 10.0 mi NW 13.8 mph 19.6 mph N/A   Clear
10:47 AM 77.0 °F 33.8 °F 21% 30.22 in 10.0 mi ESE 9.2 mph - N/A   Clear
12:47 PM 80.6 °F 39.2 °F 23% 30.20 in 10.0 mi ESE 11.5 mph - N/A   Clear
1:47 PM 84.2 °F 39.2 °F 20% 30.18 in 10.0 mi ESE 10.4 mph - N/A   Partly Cloudy
2:47 PM 86.0 °F 33.8 °F 15% 30.16 in 10.0 mi WSW 11.5 mph 19.6 mph N/A   Partly Cloudy
3:50 PM 87.8 °F 33.8 °F 15% 30.14 in 10.0 mi West 16.1 mph 23.0 mph N/A   Partly Cloudy
4:47 PM 87.8 °F 33.8 °F 15% 30.13 in 10.0 mi West 10.4 mph 17.3 mph N/A   Partly Cloudy
5:47 PM 87.8 °F 30.2 °F 13% 30.11 in 10.0 mi WNW 11.5 mph 18.4 mph N/A   Partly Cloudy
6:47 PM 86.0 °F 33.8 °F 15% 30.10 in 10.0 mi WSW 10.4 mph - N/A   Partly Cloudy
7:47 PM 86.0 °F 30.2 °F 13% 30.09 in 10.0 mi West 5.8 mph - N/A   Scattered Clouds
8:50 PM 75.2 °F 41.0 °F 29% 30.09 in 10.0 mi West 4.6 mph - N/A   Partly Cloudy
10:47 PM 71.6 °F 32.0 °F 23% 30.13 in 10.0 mi NW 10.4 mph - N/A   Clear
11:15 PM 68.0 °F 32.0 °F 26% 30.12 in 10.0 mi NNW 8.1 mph - N/A   Clear
11:35 PM 68.0 °F 33.8 °F 28% 30.13 in 10.0 mi NW 6.9 mph - N/A   Clear
11:55 PM 66.2 °F 33.8 °F 30% 30.13 in 10.0 mi NW 6.9 mph - N/A   Clear